Home > Time Zones > World Clock > Weather > France > Metz > Past weeks

Flag Weather past 2 weeks in Metz, France

Now
50 °F

Fog.


Feels Like: 47 °F
Forecast: 46 / 64 °F
Wind: 7 mph from Southeast

Location: Metz-Nancy-Lorraine

Current Time: Oct 30, 2014 at 11:54:53 PM

Latest Report: Oct 30, 2014 at 11:30 PM


Visibility: 2 mi

Pressure: 30.27 "Hg

Humidity: 94%

Dew point: 48 °F

Location of MetzLocation

Historic Weather in Metz — Graph

°F

Metz temperature yesterday

Maximum temperature yesterday: 52 °F (at 2:30 PM)
Minimum temperature yesterday: 43 °F (at 2:00 AM)
Average temperature yesterday: 50 °F

Past Weeks' High & Low Weather Summary

 TemperatureHumidityPressure
High73 °F (Oct 19, 2:00 PM)100% (Oct 17, 8:30 AM)30.30 "Hg (Oct 17, 8:30 AM)
Low36 °F (Oct 24, 8:00 AM)57% (Oct 19, 5:00 PM)29.68 "Hg (Oct 21, 4:30 PM)
Average53 °F87%30.11 "Hg
* Reported Midnight between Oct 15 and Oct 16 — Oct 30 11:00 PM, Metz, Weather by CustomWeather, © 2014

Note: Actual official high and low records may vary slightly from our data, if they occured in-between our weather recording intervals... More about our weather records

Advertising

Metz weather history for previous 24 hours

 ConditionsComfort  
Time TempWeatherWind HumidityBarometerVisibility
11:00 PM
Oct 30
50 °FFog.3 mph94%30.27 "Hg2 mi
10:30 PM52 °FFog.No wind94%30.27 "Hg3 mi
10:00 PM50 °FFog.2 mph94%30.27 "Hg2 mi
9:30 PM52 °FClear.10 mph94%30.27 "Hg4 mi
9:00 PM54 °FFog.9 mph94%30.27 "Hg3 mi
8:30 PM54 °FFog.9 mph94%30.27 "Hg3 mi
8:00 PM55 °FClear.10 mph88%30.27 "Hg4 mi
7:30 PM55 °FClear.9 mph88%30.27 "Hg4 mi
7:00 PM55 °FClear.8 mph94%30.27 "Hg5 mi
6:30 PM55 °FClear.9 mph94%30.24 "Hg6 mi
6:00 PM57 °FClear.9 mph88%30.24 "HgN/A
5:30 PM57 °FClear.9 mph88%30.24 "HgN/A
5:00 PM59 °FClear.7 mph82%30.24 "HgN/A
4:30 PM61 °FClear.5 mph83%30.24 "HgN/A
4:00 PM63 °FClear.3 mph68%30.24 "HgN/A
3:30 PM63 °FClear.5 mph68%30.24 "HgN/A
3:00 PM64 °FClear.5 mph68%30.24 "HgN/A
2:30 PM64 °FClear.5 mph68%30.24 "HgN/A
2:00 PM64 °FBroken clouds.2 mph68%30.24 "HgN/A
1:30 PM64 °FClear.2 mph73%30.24 "HgN/A
1:00 PM63 °FClear.3 mph73%30.24 "HgN/A
12:30 PM63 °FClear.2 mph77%30.24 "HgN/A
12:00 PM61 °FClear.2 mph77%30.24 "HgN/A
11:30 AM59 °FClear.3 mph82%30.24 "HgN/A
11:00 AM57 °FClear.5 mph82%30.24 "Hg5 mi
10:30 AM55 °FClear.3 mph88%30.24 "Hg4 mi
10:00 AM54 °FMore clouds than sun.5 mph94%30.24 "Hg4 mi
9:30 AM54 °FFog.6 mph94%30.24 "Hg3 mi
9:00 AM52 °FFog.6 mph94%30.24 "Hg3 mi
8:30 AM52 °FFog.7 mph94%30.21 "Hg3 mi
8:00 AM52 °FFog.7 mph94%30.21 "Hg2 mi
7:30 AM52 °FFog.5 mph94%30.21 "Hg2 mi
7:00 AM52 °FFog.6 mph94%30.21 "Hg3 mi
6:30 AM52 °FFog.6 mph94%30.18 "Hg2 mi
6:00 AM50 °FFog.6 mph100%30.18 "Hg2 mi
5:30 AM50 °FFog.5 mph94%30.18 "Hg2 mi
5:00 AM52 °FFog.6 mph94%30.18 "Hg2 mi
4:30 AM52 °FFog.5 mph94%30.18 "Hg2 mi
4:00 AM52 °FFog.3 mph94%30.18 "Hg2 mi
3:30 AM52 °FFog.3 mph94%30.18 "Hg2 mi
3:00 AM50 °FFog.6 mph100%30.15 "Hg1 mi
2:30 AM50 °FFog.7 mph100%30.15 "Hg2 mi
2:00 AM50 °FFog.6 mph100%30.15 "Hg2 mi
1:30 AM52 °FFog.6 mph94%30.18 "Hg2 mi
1:00 AM52 °FFog.5 mph94%30.15 "Hg2 mi
12:30 AM52 °FFog.6 mph94%30.15 "Hg2 mi
12:00 AM52 °FFog.5 mph94%30.15 "Hg2 mi
11:30 PM
Oct 29
52 °FFog.3 mph94%30.15 "Hg2 mi
11:00 PM52 °FFog.5 mph94%30.15 "Hg2 mi
Weather by CustomWeather, © 2014

See weather overviewHow to use our weather pages